Time,TemperatureF,DewpointF,PressureIn,WindDirection,WindDirectionDegrees,WindSpeedMPH,WindSpeedGustMPH,Humidity,HourlyPrecipIn,Conditions,Clouds,dailyrainin,SoftwareType,DateUTC
2013-07-04 00:01:00,69.0,39.0,-100.00,SW,235,7.0,14.0,34,0.00,,,0.00,,2013-07-04 06:01:00,
2013-07-04 00:11:00,69.0,39.0,-100.00,SW,235,7.0,14.0,34,0.00,,,0.00,,2013-07-04 06:11:00,
2013-07-04 00:22:00,69.0,39.0,-100.00,SW,235,7.0,14.0,34,0.00,,,0.00,,2013-07-04 06:22:00,
2013-07-04 00:34:00,67.0,40.0,-100.00,SW,226,4.0,10.0,37,0.00,,,0.00,,2013-07-04 06:34:00,
2013-07-04 01:02:00,67.0,40.0,-100.00,SW,226,4.0,10.0,37,0.00,,,0.00,,2013-07-04 07:02:00,
2013-07-04 01:12:00,67.0,40.0,-100.00,SW,226,4.0,10.0,37,0.00,,,0.00,,2013-07-04 07:12:00,
2013-07-04 01:22:00,67.0,40.0,-100.00,SW,226,4.0,10.0,37,0.00,,,0.00,,2013-07-04 07:22:00,
2013-07-04 02:02:00,64.0,40.0,-100.00,SSW,202,1.0,7.0,41,0.00,,,0.00,,2013-07-04 08:02:00,
2013-07-04 02:11:00,64.0,40.0,-100.00,SSW,202,1.0,7.0,41,0.00,,,0.00,,2013-07-04 08:11:00,
2013-07-04 02:22:00,64.0,40.0,-100.00,SSW,202,1.0,7.0,41,0.00,,,0.00,,2013-07-04 08:22:00,
2013-07-04 02:33:00,64.0,40.0,-100.00,SSW,202,1.0,7.0,41,0.00,,,0.00,,2013-07-04 08:33:00,
2013-07-04 03:02:00,62.0,40.0,-100.00,SSW,203,3.0,4.0,44,0.00,,,0.00,,2013-07-04 09:02:00,
2013-07-04 03:11:00,62.0,40.0,-100.00,SSW,203,3.0,4.0,44,0.00,,,0.00,,2013-07-04 09:11:00,
2013-07-04 03:22:00,62.0,40.0,-100.00,SSW,203,3.0,4.0,44,0.00,,,0.00,,2013-07-04 09:22:00,
2013-07-04 03:32:00,62.0,40.0,-100.00,SSW,203,3.0,4.0,44,0.00,,,0.00,,2013-07-04 09:32:00,
2013-07-04 04:01:00,62.0,41.0,-100.00,SSW,196,4.0,6.0,46,0.00,,,0.00,,2013-07-04 10:01:00,
2013-07-04 04:11:00,62.0,41.0,-100.00,SSW,196,4.0,6.0,46,0.00,,,0.00,,2013-07-04 10:11:00,
2013-07-04 04:22:00,62.0,41.0,-100.00,SSW,196,4.0,6.0,46,0.00,,,0.00,,2013-07-04 10:22:00,
2013-07-04 04:33:00,62.0,41.0,-100.00,SSW,196,4.0,6.0,46,0.00,,,0.00,,2013-07-04 10:33:00,
2013-07-04 05:02:00,64.0,40.0,-100.00,SW,215,3.0,7.0,42,0.00,,,0.00,,2013-07-04 11:02:00,
2013-07-04 05:11:00,64.0,40.0,-100.00,SW,215,3.0,7.0,42,0.00,,,0.00,,2013-07-04 11:11:00,
2013-07-04 05:22:00,64.0,40.0,-100.00,SW,215,3.0,7.0,42,0.00,,,0.00,,2013-07-04 11:22:00,
2013-07-04 05:33:00,64.0,40.0,-100.00,SW,215,3.0,7.0,42,0.00,,,0.00,,2013-07-04 11:33:00,
2013-07-04 06:02:00,62.0,39.0,-100.00,SSW,209,3.0,5.0,42,0.00,,,0.00,,2013-07-04 12:02:00,
2013-07-04 06:11:00,62.0,39.0,-100.00,SSW,209,3.0,5.0,42,0.00,,,0.00,,2013-07-04 12:11:00,
2013-07-04 06:22:00,62.0,39.0,-100.00,SSW,209,3.0,5.0,42,0.00,,,0.00,,2013-07-04 12:22:00,
2013-07-04 06:33:00,62.0,39.0,-100.00,SSW,209,3.0,5.0,42,0.00,,,0.00,,2013-07-04 12:33:00,
2013-07-04 07:02:00,62.0,39.0,-100.00,SW,226,4.0,5.0,43,0.00,,,0.00,,2013-07-04 13:02:00,
2013-07-04 07:12:00,62.0,39.0,-100.00,SW,226,4.0,5.0,43,0.00,,,0.00,,2013-07-04 13:12:00,
2013-07-04 07:23:00,62.0,39.0,-100.00,SW,226,4.0,5.0,43,0.00,,,0.00,,2013-07-04 13:23:00,
2013-07-04 07:33:00,62.0,39.0,-100.00,SW,226,4.0,5.0,43,0.00,,,0.00,,2013-07-04 13:33:00,
2013-07-04 08:02:00,67.0,39.0,-100.00,WSW,252,3.0,5.0,36,0.00,,,0.00,,2013-07-04 14:02:00,
2013-07-04 08:11:00,67.0,39.0,-100.00,WSW,252,3.0,5.0,36,0.00,,,0.00,,2013-07-04 14:11:00,
2013-07-04 08:22:00,67.0,39.0,-100.00,WSW,252,3.0,5.0,36,0.00,,,0.00,,2013-07-04 14:22:00,
2013-07-04 08:33:00,67.0,39.0,-100.00,WSW,252,3.0,5.0,36,0.00,,,0.00,,2013-07-04 14:33:00,
2013-07-04 09:33:00,76.0,42.0,-100.00,WNW,294,1.0,6.0,30,0.00,,,0.00,,2013-07-04 15:33:00,
2013-07-04 10:02:00,78.0,42.0,-100.00,South,172,2.0,6.0,28,0.00,,,0.00,,2013-07-04 16:02:00,
2013-07-04 10:11:00,78.0,42.0,-100.00,South,172,2.0,6.0,28,0.00,,,0.00,,2013-07-04 16:11:00,
2013-07-04 10:22:00,78.0,42.0,-100.00,South,172,2.0,6.0,28,0.00,,,0.00,,2013-07-04 16:22:00,
2013-07-04 10:33:00,78.0,42.0,-100.00,South,172,2.0,6.0,28,0.00,,,0.00,,2013-07-04 16:33:00,
2013-07-04 11:01:00,82.0,39.0,-100.00,NNE,20,4.0,7.0,22,0.00,,,0.00,,2013-07-04 17:01:00,
2013-07-04 11:12:00,82.0,39.0,-100.00,NNE,20,4.0,7.0,22,0.00,,,0.00,,2013-07-04 17:12:00,
2013-07-04 11:22:00,82.0,39.0,-100.00,NNE,20,4.0,7.0,22,0.00,,,0.00,,2013-07-04 17:22:00,
2013-07-04 11:33:00,82.0,39.0,-100.00,NNE,20,4.0,7.0,22,0.00,,,0.00,,2013-07-04 17:33:00,
2013-07-04 12:01:00,83.0,38.0,-100.00,North,353,4.0,11.0,20,0.00,,,-99.99,,2013-07-04 18:01:00,
2013-07-04 12:11:00,83.0,38.0,-100.00,North,353,4.0,11.0,20,0.00,,,-99.99,,2013-07-04 18:11:00,
2013-07-04 12:22:00,83.0,38.0,-100.00,North,353,4.0,11.0,20,0.00,,,-99.99,,2013-07-04 18:22:00,
2013-07-04 12:33:00,83.0,38.0,-100.00,North,353,4.0,11.0,20,0.00,,,-99.99,,2013-07-04 18:33:00,
2013-07-04 13:01:00,87.0,38.0,-100.00,NE,45,7.0,12.0,18,0.00,,,0.00,,2013-07-04 19:01:00,
2013-07-04 13:12:00,87.0,38.0,-100.00,NE,45,7.0,12.0,18,0.00,,,0.00,,2013-07-04 19:12:00,
2013-07-04 13:22:00,87.0,38.0,-100.00,NE,45,7.0,12.0,18,0.00,,,0.00,,2013-07-04 19:22:00,
2013-07-04 13:33:00,87.0,38.0,-100.00,NE,45,7.0,12.0,18,0.00,,,0.00,,2013-07-04 19:33:00,
2013-07-04 14:01:00,86.0,38.0,-100.00,North,8,8.0,19.0,18,0.00,,,0.00,,2013-07-04 20:01:00,
2013-07-04 14:11:00,86.0,38.0,-100.00,North,8,8.0,19.0,18,0.00,,,0.00,,2013-07-04 20:11:00,
2013-07-04 14:22:00,86.0,38.0,-100.00,North,8,8.0,19.0,18,0.00,,,0.00,,2013-07-04 20:22:00,
2013-07-04 14:33:00,86.0,38.0,-100.00,North,8,8.0,19.0,18,0.00,,,0.00,,2013-07-04 20:33:00,
2013-07-04 15:01:00,88.0,41.0,-100.00,East,98,7.0,15.0,19,0.00,,,0.00,,2013-07-04 21:01:00,
2013-07-04 15:11:00,88.0,41.0,-100.00,East,98,7.0,15.0,19,0.00,,,0.00,,2013-07-04 21:11:00,
2013-07-04 15:22:00,88.0,41.0,-100.00,East,98,7.0,15.0,19,0.00,,,0.00,,2013-07-04 21:22:00,
2013-07-04 15:32:00,88.0,41.0,-100.00,East,98,7.0,15.0,19,0.00,,,0.00,,2013-07-04 21:32:00,
2013-07-04 16:02:00,89.0,38.0,-100.00,NE,52,6.0,14.0,17,0.00,,,0.00,,2013-07-04 22:02:00,
2013-07-04 16:12:00,89.0,38.0,-100.00,NE,52,6.0,14.0,17,0.00,,,0.00,,2013-07-04 22:12:00,
2013-07-04 16:22:00,89.0,38.0,-100.00,NE,52,6.0,14.0,17,0.00,,,0.00,,2013-07-04 22:22:00,
2013-07-04 16:33:00,89.0,38.0,-100.00,NE,52,6.0,14.0,17,0.00,,,0.00,,2013-07-04 22:33:00,
2013-07-04 17:01:00,89.0,35.0,-100.00,NE,43,8.0,12.0,15,0.00,,,0.00,,2013-07-04 23:01:00,
2013-07-04 17:12:00,89.0,35.0,-100.00,NE,43,8.0,12.0,15,0.00,,,0.00,,2013-07-04 23:12:00,
2013-07-04 17:23:00,89.0,35.0,-100.00,NE,43,8.0,12.0,15,0.00,,,0.00,,2013-07-04 23:23:00,
2013-07-04 17:33:00,89.0,35.0,-100.00,NE,43,8.0,12.0,15,0.00,,,0.00,,2013-07-04 23:33:00,
2013-07-04 18:01:00,89.0,34.0,-100.00,ESE,115,7.0,18.0,14,0.00,,,0.00,,2013-07-05 00:01:00,
2013-07-04 18:11:00,89.0,34.0,-100.00,ESE,115,7.0,18.0,14,0.00,,,0.00,,2013-07-05 00:11:00,
2013-07-04 18:22:00,89.0,34.0,-100.00,ESE,115,7.0,18.0,14,0.00,,,0.00,,2013-07-05 00:22:00,
2013-07-04 18:32:00,89.0,34.0,-100.00,ESE,115,7.0,18.0,14,0.00,,,0.00,,2013-07-05 00:32:00,
2013-07-04 19:01:00,83.0,35.0,-100.00,ESE,111,10.0,15.0,18,0.00,,,0.00,,2013-07-05 01:01:00,
2013-07-04 19:11:00,83.0,35.0,-100.00,ESE,111,10.0,15.0,18,0.00,,,0.00,,2013-07-05 01:11:00,
2013-07-04 19:22:00,83.0,35.0,-100.00,ESE,111,10.0,15.0,18,0.00,,,0.00,,2013-07-05 01:22:00,
2013-07-04 19:32:00,83.0,35.0,-100.00,ESE,111,10.0,15.0,18,0.00,,,0.00,,2013-07-05 01:32:00,
2013-07-04 19:52:00,84.0,39.0,-100.00,SSE,160,5.0,19.0,20,0.00,,,0.00,,2013-07-05 01:52:00,
2013-07-04 20:02:00,84.0,39.0,-100.00,SSE,160,5.0,19.0,20,0.00,,,0.00,,2013-07-05 02:02:00,
2013-07-04 20:11:00,84.0,39.0,-100.00,SSE,160,5.0,19.0,20,0.00,,,0.00,,2013-07-05 02:11:00,
2013-07-04 20:21:00,84.0,39.0,-100.00,SSE,160,5.0,19.0,20,0.00,,,0.00,,2013-07-05 02:21:00,
2013-07-04 20:32:00,84.0,39.0,-100.00,SSE,160,5.0,19.0,20,0.00,,,0.00,,2013-07-05 02:32:00,
2013-07-04 20:52:00,79.0,36.0,-100.00,ENE,59,0.0,9.0,21,0.00,,,0.00,,2013-07-05 02:52:00,
2013-07-04 21:02:00,79.0,36.0,-100.00,ENE,59,0.0,9.0,21,0.00,,,0.00,,2013-07-05 03:02:00,
2013-07-04 21:11:00,79.0,36.0,-100.00,ENE,59,0.0,9.0,21,0.00,,,0.00,,2013-07-05 03:11:00,
2013-07-04 21:22:00,79.0,36.0,-100.00,ENE,59,0.0,9.0,21,0.00,,,0.00,,2013-07-05 03:22:00,
2013-07-04 21:32:00,79.0,36.0,-100.00,ENE,59,0.0,9.0,21,0.00,,,0.00,,2013-07-05 03:32:00,
2013-07-04 22:01:00,73.0,38.0,-100.00,SW,231,3.0,9.0,28,0.00,,,0.00,,2013-07-05 04:01:00,
2013-07-04 22:11:00,73.0,38.0,-100.00,SW,231,3.0,9.0,28,0.00,,,0.00,,2013-07-05 04:11:00,
2013-07-04 22:22:00,73.0,38.0,-100.00,SW,231,3.0,9.0,28,0.00,,,0.00,,2013-07-05 04:22:00,
2013-07-04 22:33:00,73.0,38.0,-100.00,SW,231,3.0,9.0,28,0.00,,,0.00,,2013-07-05 04:33:00,
2013-07-04 23:01:00,70.0,43.0,-100.00,SW,234,5.0,8.0,37,0.00,,,0.00,,2013-07-05 05:01:00,
2013-07-04 23:12:00,70.0,43.0,-100.00,SW,234,5.0,8.0,37,0.00,,,0.00,,2013-07-05 05:12:00,
2013-07-04 23:22:00,70.0,43.0,-100.00,SW,234,5.0,8.0,37,0.00,,,0.00,,2013-07-05 05:22:00,
2013-07-04 23:33:00,70.0,43.0,-100.00,SW,234,5.0,8.0,37,0.00,,,0.00,,2013-07-05 05:33:00,
2013-07-04 23:34:00,69.0,43.0,-100.00,WSW,241,5.0,9.0,39,0.00,,,-99.99,,2013-07-05 05:34:00,